Theta_e
314 314 314 315 316 319 317 318 317 317 316 313 313 308 303 301 301 301 302 305 309 314 312 312 308 309 312 313 314 313 310 310 313 310 313 313 312 313 313 314 314 314 313 314 313
310 311 313 313 314 315 318 320 317 316 317 316 315 315 311 305 301 301 303 304 308 312 313 313 310 311 313 313 314 310 308 310 309 310 312 312 312 313 312 312 313 314 314 314 314
308 308 309 310 312 315 317 315 316 316 318 316 316 316 316 311 301 304 305 303 306 310 311 309 310 311 312 312 312 309 309 307 310 311 312 312 311 312 311 310 313 314 314 314 313
306 306 308 308 310 312 314 314 314 315 315 317 316 315 316 315 303 309 309 303 307 311 311 310 310 312 310 310 312 310 310 310 311 313 311 310 311 311 311 313 313 313 313 313 314
304 305 306 306 307 308 311 311 312 313 313 314 316 315 316 314 306 305 308 305 308 312 311 310 311 311 309 309 311 311 310 311 311 312 311 311 310 309 309 312 312 312 313 313 313
305 304 304 305 305 305 307 309 310 311 312 313 313 315 314 311 312 304 305 307 307 310 310 310 311 311 311 310 310 311 311 311 311 311 311 310 309 310 310 312 312 310 312 312 312
303 305 304 303 303 304 305 307 308 310 309 311 312 315 314 314 314 306 306 308 309 309 309 309 311 312 312 310 311 311 311 309 309 310 310 311 308 308 312 311 311 312 312 311 311
304 302 303 303 303 303 304 306 307 307 307 310 311 314 315 313 313 315 313 306 308 309 309 309 311 311 311 311 310 310 309 309 309 309 310 309 310 310 311 311 312 311 311 312 312
303 302 302 304 302 302 302 303 304 305 304 308 309 312 312 313 313 315 315 310 308 309 308 310 310 310 311 308 308 307 308 307 308 308 309 307 308 309 310 310 310 310 311 311 312
304 302 302 302 303 302 301 301 302 303 304 305 308 311 310 312 312 313 316 313 309 310 310 310 310 308 305 307 309 310 308 308 309 310 309 309 307 308 310 310 311 312 313 313 312
302 303 301 302 302 302 301 300 301 302 303 307 308 310 310 311 311 312 316 309 309 310 307 309 308 309 307 307 308 308 309 309 310 310 310 309 308 309 310 310 310 312 313 314 315
301 302 303 303 302 302 301 300 302 304 306 305 309 310 309 311 308 310 312 310 308 307 305 308 309 307 307 307 308 308 309 310 309 310 309 308 308 308 307 309 311 312 314 316 316
301 301 303 302 301 301 300 299 302 305 306 307 306 309 310 310 310 309 309 309 307 306 306 307 307 307 308 307 307 307 309 309 310 310 308 309 309 308 309 308 311 312 314 315 315
301 301 302 301 300 298 298 299 299 300 305 304 308 307 309 310 309 310 309 310 309 309 307 306 306 307 307 308 307 308 306 307 309 310 309 308 311 307 309 310 310 313 315 317 316
302 302 301 300 298 297 297 297 298 300 300 300 308 308 307 309 309 310 310 310 310 308 308 308 307 306 308 308 308 308 307 307 308 308 309 308 308 306 307 310 310 310 314 315 315
302 300 300 300 297 297 299 298 300 302 302 300 308 309 308 309 308 309 309 310 309 310 309 308 307 306 306 307 307 307 307 307 305 306 309 307 309 307 309 311 311 310 311 310 312
300 300 300 298 297 296 299 299 300 303 299 303 308 308 308 308 307 308 308 310 310 311 311 309 308 307 307 308 308 308 309 312 309 307 312 305 307 310 308 307 309 308 308 309 311
300 301 299 297 296 295 297 300 301 301 297 303 305 308 308 307 307 308 309 310 308 308 308 310 312 307 307 309 309 308 311 312 312 312 310 305 309 309 306 304 305 307 308 309 311
300 300 298 296 294 297 298 300 299 298 301 304 308 308 308 308 306 307 308 310 309 306 310 310 311 306 306 307 309 309 311 309 311 299 310 307 306 307 305 305 303 304 307 309 310
299 298 296 294 295 298 299 299 296 300 303 304 306 306 308 309 306 309 307 308 309 308 307 308 310 307 306 307 307 308 308 311 309 312 312 310 310 311 307 307 305 305 305 307 309
297 294 294 294 294 298 299 295 298 299 303 304 303 303 306 307 307 308 307 307 308 308 307 307 308 307 306 307 308 307 308 308 309 308 313 312 311 306 306 304 305 306 306 308 309
293 293 295 295 297 298 297 297 299 301 302 302 303 303 303 304 306 307 307 307 307 307 309 308 306 305 307 306 306 307 308 309 311 309 308 311 310 303 303 303 305 306 307 308 309
294 294 295 296 297 289 295 296 298 299 300 303 303 303 303 304 307 306 304 305 306 307 308 307 306 307 306 307 304 306 307 307 307 307 309 310 309 301 302 303 304 306 308 309 309
293 291 293 294 293 289 292 295 293 297 299 301 302 303 303 303 299 305 305 304 305 306 308 309 306 310 309 309 307 308 307 306 309 310 310 310 309 303 303 303 303 305 307 308 308
292 285 291 290 292 288 289 293 297 293 299 299 299 303 304 299 302 300 304 305 306 309 309 307 309 305 309 307 307 308 308 308 308 310 311 310 308 306 303 302 303 306 307 309 309
293 289 289 284 291 291 292 289 295 297 297 299 299 302 302 302 301 302 303 304 307 307 308 308 307 301 307 307 307 308 307 308 308 309 307 307 307 306 303 305 305 306 307 308 310
293 293 293 291 289 288 287 293 296 296 297 298 300 299 301 300 299 299 301 302 303 308 308 307 306 309 309 308 309 311 306 306 307 305 308 308 307 305 305 304 306 308 309 308 308
Wind_Speed
27 29 26 20 19 19 18 17 14 13 12 9 8 7 8 10 12 14 19 12 16 11 16 15 15 17 19 14 7 5 3 4 5 7 4 4 4 4 4 4 9 9 8 5 5
26 30 31 28 23 23 21 17 14 15 14 12 9 9 10 12 14 21 11 13 15 16 15 18 19 18 10 11 9 5 4 9 5 4 3 3 4 2 2 3 6 12 15 12 12
25 24 24 30 29 23 21 22 22 20 15 14 13 10 11 13 15 11 13 19 20 18 16 13 16 15 6 8 8 8 6 5 5 5 3 2 2 3 3 5 14 13 19 17 18
22 26 26 24 28 29 27 24 21 20 20 15 15 13 12 9 6 3 7 20 20 20 18 19 17 9 5 6 9 3 9 6 5 7 4 3 2 4 14 14 9 8 12 16 22
26 23 27 27 27 31 27 30 28 26 23 23 16 14 14 8 15 8 1 17 22 21 21 21 23 10 6 6 6 4 3 9 11 8 7 5 8 10 15 22 20 21 16 17 20
26 26 24 28 30 27 32 30 32 29 29 24 22 15 15 7 10 10 10 11 21 21 22 23 17 16 8 5 7 6 9 2 6 7 6 5 4 2 4 7 12 25 24 20 21
34 32 24 27 23 25 26 29 32 30 28 27 17 17 22 25 10 7 9 13 16 21 23 25 13 17 6 3 6 3 2 3 6 6 4 4 7 11 24 23 22 19 21 26 28
32 36 33 24 25 20 25 26 24 27 26 27 20 21 20 22 25 26 14 14 16 17 20 23 19 10 5 4 4 4 3 2 2 7 3 6 10 3 3 6 15 17 19 17 21
32 33 37 31 26 25 19 21 25 26 24 21 23 19 13 13 26 27 22 18 13 16 18 13 21 6 7 6 3 4 4 6 7 9 4 5 7 5 2 3 10 11 14 17 17
34 33 31 32 28 26 25 18 15 15 16 23 21 10 22 20 23 30 24 19 15 17 13 10 9 5 2 5 7 7 5 4 5 6 3 4 11 12 18 16 22 22 24 24 25
33 35 34 33 31 27 24 15 13 9 20 17 15 15 8 22 7 16 29 23 17 18 7 8 5 16 9 11 6 6 4 5 4 4 5 8 8 16 17 16 23 30 32 32 32
34 33 35 35 28 25 25 22 10 2 8 37 22 36 6 13 9 19 25 18 11 7 6 2 15 7 8 4 6 5 6 4 4 2 4 4 10 12 10 12 26 29 35 37 37
35 38 36 33 27 25 29 32 19 4 5 9 43 25 32 20 7 19 31 18 5 8 12 8 4 10 11 6 9 5 7 5 5 1 2 5 8 8 8 9 26 33 37 39 40
32 33 35 28 22 26 34 31 28 27 4 6 12 23 22 9 8 23 32 20 5 16 10 9 4 14 6 12 10 13 9 8 4 2 4 2 7 5 6 7 6 21 24 27 22
30 36 34 33 22 21 26 25 27 16 5 7 10 9 26 20 13 20 29 23 8 8 8 10 11 10 12 9 15 8 8 11 6 3 2 3 3 7 2 7 11 10 26 25 20
33 35 34 30 27 15 15 19 21 7 8 5 10 11 11 21 5 9 19 16 7 6 3 7 4 8 11 6 15 7 7 6 5 4 5 7 6 5 6 8 6 2 7 9 11
35 35 33 31 28 22 18 19 5 7 3 4 6 14 17 13 17 6 9 17 10 6 8 3 3 3 5 6 4 3 9 2 1 0 7 4 6 11 7 9 5 7 13 8 6
29 38 33 30 24 24 22 8 9 4 8 1 6 15 16 11 12 7 16 16 16 6 6 10 7 9 5 6 10 10 13 6 7 5 4 2 8 6 5 6 6 4 4 4 3
39 35 32 28 23 21 14 9 12 6 3 5 3 16 10 10 10 7 12 21 21 14 11 10 9 1 5 4 13 6 11 7 5 3 2 5 7 9 2 3 4 4 1 2 3
42 32 27 25 25 21 4 16 6 5 2 2 9 10 12 20 8 17 12 13 12 19 2 5 4 3 1 4 1 9 11 5 1 5 4 4 4 4 3 2 3 3 4 3 3
37 14 19 22 24 10 9 6 4 2 2 4 5 4 8 12 9 17 14 4 22 19 6 6 4 1 6 8 10 3 6 2 5 5 5 2 5 5 7 7 6 2 3 2 1
21 4 22 26 8 2 6 4 1 2 1 3 2 3 9 10 10 14 14 19 18 15 19 6 5 4 7 1 2 1 8 15 8 7 1 2 5 2 7 4 2 5 5 5 5
12 7 17 27 6 2 1 2 2 5 3 0 3 5 3 10 7 7 7 4 10 16 17 10 4 4 2 3 3 5 3 4 5 3 7 5 6 2 1 2 2 3 4 4 3
12 4 3 6 2 5 4 4 4 3 1 2 4 3 3 5 2 11 6 4 7 11 13 20 3 13 14 12 7 7 7 6 12 7 9 9 5 5 6 6 5 3 0 3 2
5 3 6 5 2 3 4 5 5 4 4 4 3 6 2 3 3 4 4 4 3 3 9 8 16 3 2 5 5 8 10 10 7 18 10 14 8 7 10 9 8 7 3 3 5
8 8 5 3 12 5 1 3 4 3 3 3 3 4 6 4 3 7 7 4 5 2 5 3 3 5 2 5 5 2 8 13 16 16 9 4 5 3 8 12 8 9 5 6 5
8 13 10 4 3 5 4 6 6 6 0 2 2 2 4 4 5 3 7 8 3 7 5 6 5 8 13 9 5 6 10 9 8 5 11 9 7 6 5 8 10 7 5 6 3
Wind_Direction
258 261 265 273 268 260 266 267 277 286 294 299 309 307 290 276 265 249 239 233 222 208 195 197 184 175 178 183 183 168 86 212 218 166 223 184 184 183 189 190 199 208 234 251 209
263 258 255 254 257 262 256 260 267 274 279 290 298 305 303 294 277 260 240 219 209 200 194 192 181 176 181 183 177 145 160 213 213 197 202 188 188 207 192 204 233 238 238 240 222
261 261 265 252 247 252 245 260 268 265 267 275 288 294 307 309 298 260 234 214 202 200 199 188 188 176 187 181 192 177 202 213 229 200 183 200 239 209 190 247 232 230 243 231 219
280 259 260 265 252 246 247 244 252 254 258 265 277 290 294 301 245 255 222 199 193 192 189 184 182 184 175 197 197 173 231 189 191 199 176 196 257 255 219 242 266 260 258 241 227
273 270 256 257 259 250 249 247 246 249 248 262 270 278 293 263 252 258 224 189 188 190 195 187 181 178 183 195 170 215 232 222 236 218 225 243 241 252 258 263 260 260 251 236 235
270 269 266 263 258 257 248 246 246 249 252 250 261 267 266 247 256 241 233 207 201 201 198 197 202 188 191 199 183 221 221 213 215 217 228 205 243 232 272 276 265 245 244 241 237
268 273 263 265 270 253 253 245 249 247 254 249 249 255 250 239 242 211 226 222 216 210 205 203 209 196 192 164 209 163 137 288 219 209 235 191 283 236 259 262 262 256 254 248 246
264 264 265 255 263 259 248 249 248 252 253 240 241 245 252 257 253 247 246 216 212 209 208 210 200 197 202 144 59 137 69 167 268 149 206 162 263 264 183 251 264 254 250 251 249
257 259 259 255 252 257 257 254 250 250 253 235 241 242 257 248 230 227 227 220 210 203 203 203 202 198 159 120 57 347 193 208 306 197 134 173 266 257 216 232 277 274 263 254 254
242 252 254 251 248 250 253 257 251 254 260 225 230 232 239 231 231 222 216 214 199 191 182 179 178 163 117 135 191 196 204 213 212 200 164 192 259 267 264 287 285 281 272 265 263
266 244 249 241 247 243 248 248 260 247 224 198 201 210 255 228 248 220 207 189 191 174 172 196 182 204 179 190 179 141 183 182 223 180 158 222 255 269 281 285 278 278 274 273 270
269 257 237 234 233 228 233 221 208 267 255 220 221 218 227 169 199 207 193 173 166 175 147 139 226 189 183 184 157 155 166 215 303 156 165 266 260 263 267 257 262 265 273 275 276
261 266 227 225 226 219 229 231 218 227 257 233 221 222 217 234 235 204 185 189 155 159 193 194 192 169 181 166 180 191 167 177 201 33 252 316 271 241 260 238 259 261 262 266 266
253 243 213 213 206 227 236 233 225 246 264 244 193 230 221 212 245 212 194 176 178 199 169 231 179 175 168 209 181 217 172 191 187 115 238 183 282 285 258 261 246 265 262 257 266
237 224 202 208 205 214 233 215 215 228 214 219 179 198 198 184 148 197 194 196 173 170 154 216 171 162 197 190 182 215 159 189 161 190 351 208 302 269 297 281 260 258 267 275 276
228 205 199 196 214 223 213 196 196 224 221 185 145 168 145 199 190 141 176 193 189 171 254 207 188 161 186 158 179 139 96 67 63 104 258 174 185 228 197 216 257 313 331 300 282
219 200 191 198 204 204 176 154 192 231 310 202 165 176 178 180 200 166 168 187 178 152 186 142 198 169 141 108 116 148 141 87 1 309 240 235 192 255 280 261 246 285 314 310 288
233 187 193 198 209 209 205 199 211 203 229 309 166 174 189 152 200 178 175 190 209 170 162 182 211 163 184 179 166 179 180 167 185 192 211 143 226 244 228 289 281 264 288 295 286
182 174 185 193 199 197 187 213 208 195 222 190 137 176 184 186 169 154 192 198 196 191 174 172 221 113 171 158 158 187 208 181 95 44 117 208 276 294 224 290 334 311 283 242 232
162 161 186 190 188 196 198 220 206 198 158 254 190 191 181 185 160 186 171 202 205 203 206 202 184 207 154 117 59 188 161 156 89 172 239 253 263 235 252 248 345 340 284 247 214
155 140 185 185 185 197 210 231 228 246 139 199 232 169 207 192 188 195 193 208 197 193 162 156 134 332 133 209 171 145 175 154 149 171 198 208 257 226 186 173 134 79 81 103 339
138 111 165 175 183 200 204 180 208 175 151 264 243 243 188 187 197 199 206 204 197 168 195 182 130 160 196 4 17 169 187 196 206 202 213 168 257 315 152 176 123 108 115 109 92
111 108 165 180 199 175 200 179 248 191 169 252 258 222 246 176 199 198 192 200 162 177 185 178 187 125 37 351 355 205 180 136 106 93 197 178 245 20 281 236 214 148 112 74 57
130 118 119 149 134 146 154 175 249 236 131 167 257 230 252 213 282 189 196 188 188 197 196 171 150 207 207 217 133 182 191 185 193 201 205 213 179 200 238 225 233 217 234 328 303
117 175 154 172 209 180 109 159 166 211 230 183 286 219 233 264 193 175 156 164 180 187 191 170 212 124 133 117 138 186 189 186 183 220 203 229 197 220 209 202 218 199 247 283 289
129 135 121 132 140 120 326 223 153 176 179 200 204 258 175 222 262 193 148 172 177 145 165 131 227 117 136 101 80 170 204 198 211 230 237 110 243 229 197 195 193 198 237 254 278
132 139 122 118 113 98 202 183 191 151 115 307 125 105 156 113 78 16 83 84 131 157 160 147 138 167 214 156 119 242 210 182 201 196 212 212 199 164 198 204 200 237 229 242 235